Погода в Нараянгандже

Бангладеш     23°38′56″N   90°29′33″E
темп.,
°C
ветер,
м/с
пор.,
м/с
влажн.,
%
обл.,
%
осадки,
мм/ч
давл.,
гПа
погр.,
м
6 мая, чт
чт600:00+28ю46542 0.4 1008246
03:00+27юз2366100 0.0 1008158
06:00+27вюв1167100 0.0 1010192
09:00+31юв335176 0.0 10111079
12:00+36ю333628 0.0 10102521
15:00+36ююв333192 0.1 10072485
18:00+32ююз3543100 0.4 1007533
21:00+27сз1269100 1.6 1010323
7 мая, пт
пт700:00+26з346426 1.7 1009156
03:00+26в2269100 0.0 1010204
06:00+26вюв126450 0.0 1011156
09:00+30св11485 0.1 1013806
12:00+35зюз12343 0.1 10101587
15:00+37юз22280 0.0 10062467
18:00+30зюз101248100 0.1 1007702
21:00+29юз61041100 0.1 1008398
8 мая, сб
сб800:00+28з4105289 0.1 1009498
03:00+27вюв226466 0.0 1009253
06:00+27ю22692 0.0 1011280
09:00+32ю33491 0.0 10111043
12:00+36ююз343731 0.0 10092416
15:00+35ю5538100 0.2 10051805
18:00+31ююз8115717 0.2 1004397
21:00+27ююз48693 0.4 1007394
9 мая, вс
вс900:00+27ююз256267 0.5 1007231
03:00+26ю347466 0.0 1007247
06:00+27ююв357844 0.0 1008286
09:00+32ююз345622 0.0 10091205
12:00+36ююз334097 0.1 10072379
15:00+35ю444042 0.4 10041904
18:00+33ю774764 0.5 1003879
21:00+28ююз51050100 0.2 1005357
10 мая, пн
пн1000:00+28юз4874100 2.3 1005443
03:00+27зюз347729 0.0 1004268
06:00+27зюз23746 0.2 1006313
09:00+31юз23545 0.1 10071008
12:00+36ю44406 0.1 10042093
15:00+38ююз563263 0.0 10013014
18:00+30ю9116819 0.3 1001530
21:00+26юз41067100 3.4 1004370